Weather History for Whitefield, NH

Change the Weather History Date:

Thursday, February 9, 2012

  Actual Average Record
Temperature  
Mean Temperature 23 °F -  
Max Temperature 37 °F 26 °F 39 °F (1998)
Min Temperature 9 °F 0 °F -15 °F (1997)
Degree Days  
Heating Degree Days 42    
Moisture  
Dew Point 13 °F    
Average Humidity 69    
Maximum Humidity 92    
Minimum Humidity 39    
Precipitation  
Precipitation 0.00 in - - ()
Sea Level Pressure  
Sea Level Pressure 30.03 in    
Wind  
Wind Speed 1 mph (West)    
Max Wind Speed 9 mph    
Max Gust Speed 16 mph    
Visibility 10 miles    
Events      
Averages and records for this station are not official NWS values.
T = Trace of Precipitation, MM = Missing Value Source: NWS Daily Summary

Daily Weather History Graph

Daily Weather History Graph

Search for Another Location

Airport:

Trip Planner

Search our weather history database for the weather conditions in past years. The results will help you decide how hot, cold, wet, or windy it might be!

Date:

Astronomy

Feb. 09, 2012 Rise Set
Actual Time 6:55 AM EST 5:06 PM EST
Civil Twilight 6:24 AM EST 5:36 PM EST
Nautical Twilight 5:50 AM EST 6:10 PM EST
Astronomical Twilight 5:16 AM EST 6:44 PM EST
Moon 7:39 PM EST (2/9) 7:22 AM EST (2/9)
Length of Visible Light 11h 11m
Length of Day
10h 10m
Waning Gibbous, 96% of the Moon is Illuminated
Feb 9
Waning Gibbous
Feb 14
Last Quarter
Feb 21
New
Feb 29
First Quarter
Mar 8
Full

Hourly Weather History & Observations

Time (EST) Temp. Windchill Dew Point Humidity Pressure Visibility Wind Dir Wind Speed Gust Speed Precip Events Conditions
12:52 AM 16.0 °F - 10.9 °F 81% 30.04 in 10.0 mi Calm Calm - N/A   Clear
1:52 AM 17.1 °F - 12.0 °F 81% 30.04 in 10.0 mi Calm Calm - N/A   Clear
2:52 AM 17.1 °F - 12.0 °F 81% 30.02 in 10.0 mi Calm Calm - N/A   Clear
3:52 AM 17.1 °F - 12.0 °F 81% 30.01 in 10.0 mi Calm Calm - N/A   Clear
4:52 AM 16.0 °F - 12.0 °F 84% 30.02 in 10.0 mi Calm Calm - N/A   Clear
5:52 AM 12.9 °F - 9.0 °F 84% 30.03 in 10.0 mi Calm Calm - N/A   Clear
6:52 AM 9.0 °F - 6.1 °F 88% 30.04 in 10.0 mi Calm Calm - N/A   Clear
7:52 AM 10.9 °F - 8.1 °F 88% 30.06 in 10.0 mi Calm Calm - N/A   Clear
8:52 AM 19.0 °F - 12.9 °F 77% 30.07 in 10.0 mi Calm Calm - N/A   Clear
9:52 AM 28.0 °F - 14.0 °F 56% 30.05 in 10.0 mi Calm Calm - N/A   Clear
10:52 AM 30.0 °F 24.1 °F 12.9 °F 49% 30.04 in 10.0 mi Variable 5.8 mph - N/A   Clear
11:52 AM 32.0 °F 28.7 °F 14.0 °F 48% 30.01 in 10.0 mi Variable 3.5 mph - N/A   Clear
12:52 PM 33.1 °F 27.7 °F 14.0 °F 46% 29.99 in 10.0 mi Variable 5.8 mph - N/A   Clear
1:52 PM 35.1 °F 27.9 °F 14.0 °F 42% 29.98 in 10.0 mi NW 9.2 mph 16.1 mph N/A   Clear
2:52 PM 36.0 °F 31.1 °F 15.1 °F 43% 29.98 in 10.0 mi WSW 5.8 mph - N/A   Clear
3:52 PM 37.0 °F - 14.0 °F 39% 29.99 in 10.0 mi Calm Calm - N/A   Clear
4:52 PM 30.9 °F 27.5 °F 15.1 °F 52% 30.00 in 10.0 mi Variable 3.5 mph - N/A   Clear
5:52 PM 25.0 °F - 15.1 °F 66% 30.02 in 10.0 mi Calm Calm - N/A   Clear
6:52 PM 23.0 °F - 15.1 °F 72% 30.03 in 10.0 mi Calm Calm - N/A   Clear
7:52 PM 19.9 °F - 15.1 °F 81% 30.04 in 10.0 mi Calm Calm - N/A   Clear
8:52 PM 19.0 °F - 14.0 °F 81% 30.04 in 10.0 mi Calm Calm - N/A   Clear
9:52 PM 16.0 °F - 12.0 °F 84% 30.06 in 10.0 mi Calm Calm - N/A   Clear
10:52 PM 14.0 °F - 10.9 °F 88% 30.05 in 10.0 mi Calm Calm - N/A   Clear
11:52 PM 12.0 °F - 10.0 °F 92% 30.07 in 10.0 mi Calm Calm - N/A   Clear